Terminal Aerodrome Forecast
Issued by NWS Quad Cities IA IL

Home | Current Version | Previous Version | Text Only | Print | Product List | Glossary On
Versions: 1 2 3 4 5 6 7 8 9 10 11 12 13 14 15 16 17 18 19
000
FTUS43 KDVN 252002 AAB
TAFDBQ
TAF AMD
KDBQ 252002Z 2520/2618 07016G28KT P6SM VCSH BKN020 OVC040
     FM252100 07015G21KT P6SM SCT020 OVC040
     FM260000 06013KT P6SM OVC040
     FM260300 05010KT P6SM SCT040
     FM261500 05009KT P6SM SKC=

USA.gov is the U.S. government's official web portal to all federal, state and local government web resources and services.